[[{"header":{"parameterUnit":"m.s-1","parameterCategory":1,"la1":30.2991,"la2":30.254,"lo1":-89.0895,"lo2":-89.0444,"dy":0.0017,"dx":0.0017,"nx":28,"ny":28,"refTime":"2024-05-26T03:00:00:Z","depth":0,"parameterNumber":2,"parameterNumberName":"U-component_of_WINDS"},"data":[0,0,0,0,0,0,0,0,0,0,0,0,0,0,0,0,0,0,0,0,0,0,0,0,0,0,0,0,0,0,0,0,0,0,0,0,0,0,0,0,0,0,0,0,0,0,0,0,0,0,0,0,0,0,0,0,0,0,-0.0822,-0.0822,0,-0.0773,-0.0772,-0.0772,-0.0749,-0.0749,-0.0749,-0.075,-0.0699,-0.0698,-0.0696,0,0,0,0,0,0,0,0,0,0,0,0,0,-0.0898,-0.0897,-0.0823,-0.0822,-0.0821,-0.0773,-0.0772,-0.0772,-0.0749,-0.0749,-0.075,-0.075,-0.0699,-0.0698,-0.0696,0,0,0,0,0,0,0,0,0,0,0,0,0,-0.0859,-0.0897,-0.0823,-0.0804,-0.0802,-0.0773,-0.0772,-0.0772,-0.0749,-0.0749,-0.075,-0.075,-0.07,-0.0698,-0.0696,-0.0682,0,0,-0.0689,-0.0689,0,0,0,0,0,0,0,0,-0.0861,-0.0856,-0.0808,-0.0806,-0.0803,-0.0767,-0.0781,-0.0741,-0.0749,-0.0769,-0.075,-0.075,-0.0722,-0.0718,-0.0708,-0.0679,-0.0677,-0.0689,-0.0688,-0.0687,-0.0687,0,0,0,0,0,0,0,-0.0864,-0.0858,-0.0803,-0.0807,-0.0804,-0.0799,-0.0793,-0.0773,-0.0746,-0.0768,-0.0766,-0.076,-0.072,-0.071,-0.0707,-0.0676,-0.0689,-0.0688,-0.0686,-0.0685,-0.0633,-0.0633,0,0,0,0,0,0,-0.087,-0.0861,-0.0805,-0.0801,-0.0833,-0.0797,-0.0791,-0.0779,-0.0746,-0.0741,-0.076,-0.076,-0.0714,-0.071,-0.0705,-0.0687,-0.0687,-0.0685,-0.0684,-0.0634,-0.0633,-0.0633,0,0,0,0,0,0,-0.0871,-0.0865,-0.0806,-0.0831,-0.0823,-0.0796,-0.0782,-0.0778,-0.0768,-0.074,-0.0735,-0.0755,-0.0714,-0.0708,-0.0688,-0.0684,-0.0684,-0.0682,-0.0634,-0.0634,-0.0633,-0.0649,0,0,0,0,0,0,-0.0874,-0.0866,-0.086,-0.0831,-0.0822,-0.079,-0.0782,-0.0777,-0.0764,-0.0763,-0.0734,-0.0729,-0.0713,-0.0691,-0.0686,-0.0682,-0.0681,-0.0634,-0.0634,-0.0633,-0.0649,-0.0649,-0.065,0,0,0,0,0,-0.0876,-0.0866,-0.0859,-0.0853,-0.0813,-0.079,-0.0784,-0.0766,-0.0764,-0.0758,-0.0741,-0.073,-0.0686,-0.0689,-0.0683,-0.0678,-0.0634,-0.0634,-0.0633,-0.0648,-0.0649,-0.065,0,0,0,0,0,0,-0.0895,-0.0862,-0.0854,-0.0834,-0.0815,-0.0786,-0.0777,-0.0768,-0.0749,-0.0748,-0.0726,-0.072,-0.0702,-0.0688,-0.0692,-0.0663,-0.0659,-0.0658,-0.0672,-0.0673,-0.0674,-0.0677,-0.0679,0,0,0,0,0,-0.0897,-0.088,-0.0852,-0.0837,-0.0827,-0.0804,-0.0793,-0.0781,-0.076,-0.0752,-0.0733,-0.0713,-0.0695,-0.0683,-0.0665,-0.0647,-0.064,-0.064,-0.0641,-0.0642,-0.0641,-0.0631,-0.063,-0.0632,-0.0632,-0.0632,0,0,-0.09,-0.088,-0.0871,-0.084,-0.0824,-0.0807,-0.0798,-0.078,-0.0768,-0.0749,-0.0729,-0.0715,-0.0691,-0.0672,-0.0663,-0.066,-0.0639,-0.0642,-0.0642,-0.0641,-0.063,-0.063,-0.063,-0.0632,-0.0632,-0.0632,0,0,-0.0898,-0.0881,-0.0866,-0.0851,-0.0826,-0.0811,-0.0808,-0.078,-0.077,-0.0749,-0.0735,-0.072,-0.0689,-0.0673,-0.0661,-0.0654,-0.0644,-0.0649,-0.0652,-0.0642,-0.0642,-0.0642,-0.064,-0.0639,-0.0648,-0.0648,-0.0648,0,-0.0905,-0.0879,-0.086,-0.0844,-0.0831,-0.0814,-0.08,-0.0785,-0.0756,-0.0748,-0.0745,-0.0706,-0.0689,-0.0666,-0.0665,-0.0655,-0.0651,-0.0652,-0.0644,-0.0643,-0.0643,-0.064,-0.064,-0.0648,-0.0648,-0.0648,-0.0648,0,-0.089,-0.0872,-0.0864,-0.0836,-0.0822,-0.0807,-0.0786,-0.0775,-0.0764,-0.0749,-0.0729,-0.0708,-0.0685,-0.0679,-0.0668,-0.0655,-0.0654,-0.0648,-0.0644,-0.0644,-0.0641,-0.064,-0.0649,-0.0649,-0.0649,-0.0649,0,0,-0.0897,-0.086,-0.0857,-0.0845,-0.0817,-0.0803,-0.0788,-0.0765,-0.0756,-0.0737,-0.0723,-0.0698,-0.0692,-0.0679,-0.0666,-0.0658,-0.0654,-0.0652,-0.0652,-0.0654,-0.0638,-0.0643,-0.0642,-0.0647,-0.0647,-0.0647,-0.064,0,-0.0891,-0.0862,-0.0845,-0.0823,-0.0807,-0.0791,-0.0777,-0.0759,-0.0745,-0.0729,-0.0714,-0.0696,-0.069,-0.0682,-0.0673,-0.0656,-0.065,-0.0656,-0.0634,-0.0634,-0.0641,-0.0641,-0.0645,-0.064,-0.0639,-0.0639,-0.0639,0,-0.088,-0.0861,-0.0838,-0.0812,-0.0805,-0.0793,-0.0772,-0.0757,-0.0736,-0.0727,-0.0712,-0.07,-0.0683,-0.068,-0.0657,-0.0662,-0.0652,-0.0642,-0.0642,-0.0639,-0.0636,-0.0638,-0.0638,-0.0637,-0.0637,-0.0637,-0.0637,0,-0.0888,-0.0857,-0.0839,-0.0829,-0.0799,-0.0791,-0.0778,-0.0757,-0.0746,-0.0727,-0.0719,-0.0699,-0.0688,-0.0673,-0.0656,-0.0655,-0.0634,-0.063,-0.0626,-0.0627,-0.0622,-0.0622,-0.0621,-0.0616,-0.0616,-0.0616,-0.0616,0,-0.0883,-0.0869,-0.0842,-0.0831,-0.0816,-0.0796,-0.0782,-0.0767,-0.0749,-0.0736,-0.0721,-0.0708,-0.0686,-0.0671,-0.0657,-0.064,-0.0635,-0.0627,-0.0624,-0.0628,-0.0629,-0.0621,-0.0621,-0.0616,-0.0616,-0.0616,-0.0616,0,-0.0889,-0.087,-0.085,-0.0823,-0.0816,-0.0806,-0.0784,-0.0772,-0.0758,-0.0741,-0.0736,-0.0713,-0.0694,-0.0676,-0.0651,-0.0641,-0.0625,-0.062,-0.0632,-0.063,-0.0627,-0.0627,-0.062,-0.0618,-0.0615,-0.0615,-0.0615,0,-0.0887,-0.0876,-0.0849,-0.0838,-0.0826,-0.0809,-0.0797,-0.0778,-0.0766,-0.0743,-0.0734,-0.0715,-0.0698,-0.0669,-0.0651,-0.0631,-0.0626,-0.0625,-0.0623,-0.0628,-0.0626,-0.0627,-0.0626,-0.0625,-0.0625,-0.0626,-0.0626,0,-0.0885,-0.0877,-0.086,-0.084,-0.0826,-0.0809,-0.0792,-0.0785,-0.0763,-0.075,-0.0731,-0.0718,-0.0693,-0.0673,-0.0652,-0.0639,-0.0629,-0.0626,-0.0624,-0.0629,-0.0636,-0.0633,-0.0634,-0.0627,-0.0626,-0.0626,-0.0626,-0.0626,-0.0887,-0.0877,-0.0856,-0.0838,-0.0823,-0.0808,-0.0796,-0.0781,-0.0764,-0.0742,-0.0732,-0.0713,-0.0693,-0.0664,-0.0651,-0.0636,-0.0633,-0.0631,-0.063,-0.0629,-0.0631,-0.0639,-0.0632,-0.0632,-0.0632,-0.0632,-0.0632,0,-0.0885,-0.0871,-0.0855,-0.0831,-0.0817,-0.0809,-0.079,-0.0779,-0.0762,-0.0744,-0.0728,-0.0707,-0.0688,-0.0669,-0.0649,-0.0641,-0.0636,-0.0636,-0.0637,-0.0634,-0.0634,-0.0638,-0.0641,-0.0641,-0.0641,-0.0641,-0.0641,-0.0641,-0.0882,-0.0865,-0.0854,-0.0829,-0.0815,-0.0797,-0.0786,-0.0772,-0.0758,-0.0735,-0.0719,-0.0707,-0.0688,-0.0668,-0.065,-0.0645,-0.0639,-0.0641,-0.0634,-0.0635,-0.0634,-0.0633,-0.0637,-0.0639,-0.0639,-0.0635,-0.0635,-0.0635]},{"header":{"parameterUnit":"m.s-1","parameterCategory":1,"la1":30.2991,"la2":30.254,"lo1":-89.0895,"lo2":-89.0444,"dy":0.0017,"dx":0.0017,"nx":28,"ny":28,"refTime":"2024-05-26T03:00:00:Z","depth":0,"parameterNumber":3,"parameterNumberName":"V-component_of_WINDS"},"data":[0,0,0,0,0,0,0,0,0,0,0,0,0,0,0,0,0,0,0,0,0,0,0,0,0,0,0,0,0,0,0,0,0,0,0,0,0,0,0,0,0,0,0,0,0,0,0,0,0,0,0,0,0,0,0,0,0,0,5.0457,5.0458,0,5.0553,5.0554,5.0555,5.0517,5.0515,5.0512,5.051,5.0606,5.061,5.0615,0,0,0,0,0,0,0,0,0,0,0,0,0,5.0236,5.0241,5.0457,5.0458,5.0459,5.0553,5.0554,5.0556,5.0517,5.0514,5.0512,5.0509,5.0604,5.061,5.0615,0,0,0,0,0,0,0,0,0,0,0,0,0,5.0332,5.0242,5.0457,5.0451,5.0452,5.0553,5.0554,5.0556,5.0518,5.0514,5.0511,5.0508,5.0602,5.0609,5.0616,5.0727,0,0,5.0637,5.064,0,0,0,0,0,0,0,0,5.0327,5.034,5.0451,5.0452,5.0453,5.052,5.0512,5.0613,5.0519,5.0493,5.051,5.0506,5.058,5.0588,5.0614,5.0731,5.0735,5.0638,5.0642,5.0645,5.0647,0,0,0,0,0,0,0,5.032,5.0336,5.0495,5.0453,5.0454,5.0443,5.0453,5.0531,5.0554,5.0495,5.0492,5.0504,5.0579,5.0607,5.0616,5.0737,5.0638,5.0644,5.0648,5.0651,5.0949,5.0953,0,0,0,0,0,0,5.0314,5.0331,5.0492,5.0498,5.038,5.045,5.0461,5.0501,5.0553,5.0558,5.0507,5.0502,5.0597,5.0608,5.0619,5.0751,5.0645,5.0652,5.0656,5.0945,5.095,5.0954,0,0,0,0,0,0,5.0309,5.0329,5.0488,5.0414,5.0433,5.0457,5.0503,5.0505,5.0533,5.0562,5.0566,5.0531,5.0595,5.0609,5.07,5.0754,5.0655,5.0661,5.0941,5.0947,5.0952,5.1017,0,0,0,0,0,0,5.0303,5.0327,5.037,5.0415,5.0437,5.0569,5.0506,5.0509,5.0545,5.054,5.0586,5.059,5.0593,5.069,5.0707,5.0762,5.0667,5.0936,5.0943,5.095,5.101,5.1025,5.1037,0,0,0,0,0,5.0295,5.0384,5.0373,5.0392,5.0492,5.0572,5.0585,5.0587,5.055,5.0593,5.0611,5.0589,5.0746,5.07,5.0719,5.0776,5.0933,5.0941,5.095,5.1005,5.1022,5.1036,0,0,0,0,0,0,5.0345,5.039,5.0378,5.0484,5.0525,5.0565,5.062,5.0605,5.0656,5.0649,5.0648,5.0659,5.0753,5.0774,5.0722,5.0886,5.0833,5.0846,5.0869,5.0885,5.0898,5.0891,5.0672,0,0,0,0,0,5.0368,5.043,5.0466,5.0557,5.0578,5.0595,5.063,5.0629,5.067,5.0687,5.0712,5.0753,5.0811,5.0849,5.0904,5.1013,5.1022,5.1062,5.1075,5.1086,5.1096,5.1155,5.1173,5.0981,5.0981,5.0981,0,0,5.0417,5.0449,5.0488,5.0567,5.0599,5.0662,5.061,5.0679,5.0726,5.0697,5.0785,5.0805,5.085,5.095,5.0996,5.097,5.1151,5.1096,5.1105,5.111,5.1165,5.1183,5.1199,5.0987,5.0986,5.0985,0,0,5.0538,5.0569,5.0647,5.068,5.0728,5.0739,5.0758,5.0801,5.0814,5.0902,5.0881,5.0936,5.1037,5.107,5.11,5.1233,5.1213,5.1251,5.1318,5.1375,5.139,5.1404,5.1451,5.1468,5.1261,5.1262,5.1262,0,5.0592,5.0688,5.0689,5.0761,5.0796,5.0773,5.0852,5.0883,5.0946,5.097,5.0941,5.1067,5.1095,5.1203,5.1235,5.126,5.1281,5.1245,5.1388,5.1402,5.1414,5.1459,5.1477,5.1266,5.1265,5.1265,5.1264,0,5.0751,5.0818,5.0875,5.0938,5.0979,5.1054,5.1066,5.1108,5.1102,5.1116,5.1206,5.1239,5.1301,5.1326,5.1321,5.1433,5.1416,5.1388,5.1335,5.1437,5.1478,5.1496,5.1272,5.127,5.1269,5.1268,0,0,5.0906,5.0969,5.099,5.1018,5.1069,5.112,5.1193,5.1254,5.1289,5.1334,5.1395,5.148,5.1455,5.1488,5.1487,5.1537,5.164,5.1503,5.1504,5.1526,5.1764,5.1784,5.1804,5.1627,5.1631,5.1633,5.176,0,5.1031,5.116,5.1163,5.1281,5.1343,5.1322,5.1385,5.1423,5.1438,5.1491,5.1507,5.1568,5.1529,5.155,5.1598,5.1617,5.1687,5.1608,5.1683,5.1685,5.1672,5.1826,5.1848,5.1966,5.1776,5.1779,5.1781,0,5.1193,5.1244,5.1368,5.141,5.1436,5.1493,5.1549,5.1601,5.1643,5.165,5.1688,5.1679,5.1752,5.1698,5.1799,5.1745,5.1776,5.1789,5.1794,5.18,5.1739,5.1837,5.2004,5.2022,5.1807,5.1805,5.1803,0,5.1293,5.1392,5.1479,5.1503,5.1555,5.1595,5.1619,5.1657,5.1694,5.1742,5.1766,5.1822,5.1852,5.1896,5.1902,5.1862,5.2003,5.1949,5.201,5.201,5.204,5.2038,5.2215,5.2061,5.2061,5.2061,5.206,0,5.1431,5.1508,5.1524,5.1578,5.1663,5.1665,5.1749,5.1769,5.1804,5.186,5.1845,5.1898,5.1903,5.1957,5.1962,5.2045,5.2059,5.2066,5.2066,5.2067,5.2066,5.2087,5.2079,5.2065,5.2064,5.2063,5.2063,0,5.1557,5.1571,5.1664,5.1705,5.1717,5.1778,5.1813,5.1864,5.1877,5.1948,5.1965,5.1986,5.2049,5.2059,5.2133,5.2137,5.2235,5.2227,5.2221,5.222,5.2281,5.2275,5.2476,5.2502,5.2332,5.2334,5.2335,0,5.1644,5.1703,5.175,5.1787,5.1813,5.1873,5.191,5.1914,5.1953,5.2006,5.205,5.2111,5.2161,5.2263,5.2284,5.234,5.2333,5.24,5.2341,5.234,5.2333,5.233,5.2335,5.2411,5.2413,5.2414,5.2415,0,5.1797,5.1801,5.1856,5.1913,5.1958,5.2003,5.2045,5.2076,5.2086,5.213,5.2195,5.2234,5.231,5.2371,5.2427,5.2449,5.2434,5.2434,5.2451,5.2452,5.2446,5.2449,5.2252,5.2429,5.2427,5.2426,5.2426,5.2425,5.1906,5.1957,5.1998,5.2059,5.2092,5.2132,5.2181,5.2201,5.2255,5.2318,5.2317,5.2388,5.2428,5.2502,5.2528,5.2583,5.2561,5.2586,5.2592,5.2598,5.2604,5.2438,5.2593,5.2593,5.2592,5.2592,5.2592,0,5.2058,5.2083,5.214,5.22,5.2248,5.223,5.2276,5.2317,5.238,5.2418,5.2468,5.2542,5.2601,5.2627,5.2685,5.2724,5.2718,5.2739,5.2736,5.2741,5.262,5.2599,5.2742,5.2742,5.2742,5.2742,5.2742,5.2742,5.2142,5.2227,5.2236,5.2337,5.2362,5.2432,5.246,5.2496,5.2527,5.2611,5.266,5.2677,5.271,5.2771,5.2824,5.283,5.2852,5.2875,5.2878,5.2765,5.275,5.2735,5.2715,5.288,5.2881,5.2994,5.2995,5.2996]}]]